GCLAGCHI

Guest
Details From GCLA - La Palma
To GCHI - Hierro
Flight Number -
Tags generated
Created
Modified
Stats Distance 49 nm / 91 km
Max Altitude 0 ft / 0 m
Waypoints 2
Social Downloads 0
Likes 0
Share VATSIM

Download

Looking for another format? Having issues loading an existing format? Contact us
Advertisement - Login to hide

Notes

Basic altitude profile: - Ascent Rate: 2500ft/min - Ascent Speed: 250kts - Cruise Altitude: 35000ft - Cruise Speed: 420kts - Descent Rate: 1500ft/min - Descent Speed: 250kts Options: - Use NATs: yes - Use PACOTS: yes - Use low airways: yes - Use high airways: no

Route

GCLA GCHI

ID Type Via Altitude Latitude Longitude Leg Dist Tot Dist Heading (true) Name
O GCLA APT - 0 ft / 0 m 28.62648˚ -17.75561˚ - 0 nm - La Palma
O GCHI APT - 0 ft / 0 m 27.81485˚ -17.88705˚ 49 nm 49 nm 188° / 188° Hierro

Altitude Profile

Advertisement - Login to hide

GCLA

Details ICAO GCLA (SPC)
Name La Palma
Region Canary Islands
Timezone Atlantic/Canary (UTC+0.0)
Stats Elevation 107 ft / 33 m (AMSL)
Location 28.626480° -17.755613°
Runways 1
Magnetic Variation 5.523° W

METAR

GCLA 121230Z 36017KT 9999 FEW042 22/12 Q1021

Decode

TAF

TAF GCLA 120800Z 1209/1309 01016KT 9999 FEW030 SCT050 TX21/1213Z TN16/1306Z TEMPO 1209/1215 01016G28KT

Decode

Departure Runways

ID Width Length Bearing (true) Bearing (mag) Surface Threshold Offset Overrun Length
01 148 ft / 45 m 7,240 ft / 2,207 m 359.02° 4.54° Asphalt 0 ft / 0 m 279 ft / 85 m
19 148 ft / 45 m 7,240 ft / 2,207 m 179.02° 184.54° Asphalt 0 ft / 0 m 236 ft / 72 m

GCHI

Details ICAO GCHI (VDE)
Name Hierro
Region Canary Islands
Timezone Atlantic/Canary (UTC+0.0)
Stats Elevation 337 ft / 103 m (AMSL)
Location 27.814848° -17.887052°
Runways 1
Magnetic Variation 5.629° W

METAR

GCHI 121230Z 03021G31KT 360V060 9999 FEW027 21/12 Q1021

Decode

TAF

TAF GCHI 120800Z 1209/1309 02020KT 9999 FEW030 SCT050 TX22/1214Z TN17/1306Z TEMPO 1209/1309 02018G30KT

Decode

Destination Runways

ID Width Length Bearing (true) Bearing (mag) Surface Threshold Offset Overrun Length
16 98 ft / 30 m 4,110 ft / 1,253 m 152.71° 158.34° Asphalt 0 ft / 0 m 112 ft / 34 m
34 98 ft / 30 m 4,110 ft / 1,253 m 332.71° 338.34° Asphalt 0 ft / 0 m 105 ft / 32 m

Popular Alternatives